This is the latest recevied weather packets stored in our database for station/object N0NAI-13. If no packets are shown the sender has not sent any weather packets the latest 10 day(s).
| Time | Temp. | Humidity | Pressure | Rain* | Wind** | Luminosity | Snow |
|---|---|---|---|---|---|---|---|
| 1777674325 | 16.11° C | 31% | 1019.9 hPa | 0 mm | - | - | - |
| 1777673727 | 15.56° C | 31% | 1019.8 hPa | 0 mm | - | - | - |
| 1777673125 | 15° C | 31% | 1019.9 hPa | 0 mm | - | - | - |
| 1777672527 | 15° C | 31% | 1019.7 hPa | 0 mm | - | - | - |
| 1777671930 | 15.56° C | 31% | 1019.8 hPa | 0 mm | - | - | - |
| 1777671333 | 14.44° C | 31% | 1019.8 hPa | 0 mm | - | - | - |
| 1777670717 | 14.44° C | 29% | 1019.9 hPa | 0 mm | - | - | - |
| 1777670120 | 14.44° C | 32% | 1019.8 hPa | 0 mm | - | - | - |
| 1777669523 | 13.89° C | 31% | 1019.7 hPa | 0 mm | - | - | - |
| 1777668920 | 14.44° C | 32% | 1019.8 hPa | 0 mm | - | - | - |
| 1777668317 | 13.89° C | 32% | 1019.8 hPa | 0 mm | - | - | - |
| 1777667732 | 13.89° C | 34% | 1019.8 hPa | 0 mm | - | - | - |
| 1777667116 | 13.33° C | 34% | 1019.8 hPa | 0 mm | - | - | - |
| 1777666519 | 13.89° C | 34% | 1019.9 hPa | 0 mm | - | - | - |
| 1777665922 | 13.89° C | 34% | 1020 hPa | 0 mm | - | - | - |
| 1777665325 | 13.33° C | 36% | 1019.9 hPa | 0 mm | - | - | - |
| 1777664728 | 13.33° C | 37% | 1020 hPa | 0 mm | - | - | - |
| 1777664131 | 13.33° C | 36% | 1020 hPa | 0 mm | - | - | - |
| 1777663516 | 13.33° C | 37% | 1019.9 hPa | 0 mm | - | - | - |
| 1777662919 | 12.78° C | 36% | 1020 hPa | 0 mm | - | - | - |
| 1777662322 | 12.78° C | 38% | 1020 hPa | 0 mm | - | - | - |
| 1777661725 | 12.22° C | 38% | 1020 hPa | 0 mm | - | - | - |
| 1777661127 | 11.67° C | 39% | 1020 hPa | 0 mm | - | - | - |
| 1777660531 | 11.11° C | 40% | 1020 hPa | 0 mm | - | - | - |
| 1777659916 | 11.11° C | 41% | 1020 hPa | 0 mm | - | - | - |
* Rain latest hour (hover to see other rain measurements)
** Current wind speed in m/s (hover to see current wind gust speed)